[[{"header":{"parameterUnit":"m.s-1","parameterCategory":1,"la1":30.2991,"la2":30.254,"lo1":-89.0895,"lo2":-89.0444,"dy":0.0017,"dx":0.0017,"nx":28,"ny":28,"refTime":"2025-07-19T21:00:00:Z","depth":0,"parameterNumber":2,"parameterNumberName":"U-component_of_WINDS"},"data":[0,0,0,0,0,0,0,0,0,0,0,0,0,0,0,0,0,0,0,0,0,0,0,0,0,0,0,0,0,0,0,0,0,0,0,0,0,0,0,0,0,0,0,0,0,0,0,0,0,0,0,0,0,0,0,0,0,0,2.7712,2.7713,0,2.7821,2.7822,2.7823,2.7802,2.78,2.7798,2.7796,2.7909,2.7914,2.7919,0,0,0,0,0,0,0,0,0,0,0,0,0,2.7483,2.7487,2.7712,2.7713,2.7714,2.7821,2.7822,2.7824,2.7802,2.78,2.7797,2.7795,2.7907,2.7913,2.7919,0,0,0,0,0,0,0,0,0,0,0,0,0,2.7586,2.7489,2.7711,2.7716,2.7718,2.782,2.7822,2.7824,2.7803,2.78,2.7797,2.7794,2.7906,2.7913,2.792,2.8024,0,0,2.7942,2.7945,0,0,0,0,0,0,0,0,2.7581,2.7595,2.7714,2.7716,2.7718,2.7795,2.7783,2.7891,2.7804,2.7771,2.7796,2.7793,2.7874,2.7883,2.791,2.803,2.8035,2.7943,2.7947,2.795,2.7952,0,0,0,0,0,0,0,2.7573,2.759,2.7755,2.7716,2.7718,2.7713,2.7724,2.7804,2.7838,2.7773,2.7772,2.7785,2.7874,2.7903,2.7913,2.8036,2.7943,2.7949,2.7954,2.7956,2.8243,2.8247,0,0,0,0,0,0,2.7565,2.7584,2.7751,2.7758,2.7641,2.7719,2.7732,2.7773,2.7837,2.7843,2.7788,2.7784,2.7892,2.7904,2.7917,2.8041,2.795,2.7957,2.7961,2.824,2.8244,2.8248,0,0,0,0,0,0,2.756,2.758,2.7747,2.7671,2.7692,2.7726,2.7773,2.7777,2.7806,2.7847,2.7853,2.7811,2.789,2.7906,2.7997,2.8044,2.796,2.7967,2.8236,2.8241,2.8246,2.8291,0,0,0,0,0,0,2.7553,2.7578,2.7619,2.7672,2.7696,2.7826,2.7776,2.7781,2.7819,2.7815,2.7871,2.7878,2.7889,2.7986,2.8004,2.8053,2.7973,2.8232,2.8239,2.8244,2.8286,2.8297,2.8307,0,0,0,0,0,2.7545,2.7628,2.7621,2.7641,2.7747,2.7829,2.7842,2.7854,2.7823,2.7863,2.7889,2.7876,2.8037,2.7996,2.8016,2.8067,2.8229,2.8237,2.8244,2.8281,2.8295,2.8306,0,0,0,0,0,0,2.758,2.7635,2.7628,2.773,2.7775,2.7825,2.7876,2.7869,2.7923,2.7917,2.7929,2.7942,2.8034,2.806,2.8013,2.817,2.8128,2.814,2.815,2.8163,2.8174,2.8165,2.7979,0,0,0,0,0,2.76,2.7662,2.7706,2.7792,2.7815,2.7842,2.7878,2.7883,2.7929,2.7948,2.7981,2.8027,2.8087,2.8127,2.8185,2.829,2.83,2.8335,2.8345,2.8354,2.8363,2.8417,2.8432,2.8272,2.8272,2.8272,0,0,2.7641,2.7679,2.7717,2.78,2.7835,2.7898,2.7858,2.7927,2.7973,2.7959,2.8045,2.8071,2.8123,2.822,2.8264,2.8244,2.841,2.8363,2.837,2.8375,2.8426,2.8442,2.8455,2.8277,2.8276,2.8275,0,0,2.7748,2.7784,2.7858,2.7893,2.7946,2.7963,2.7981,2.8032,2.8048,2.8135,2.8124,2.818,2.8284,2.8321,2.8353,2.8471,2.846,2.849,2.8544,2.8597,2.8609,2.8621,2.866,2.8674,2.8499,2.8499,2.8499,0,2.7792,2.7886,2.7897,2.7966,2.8001,2.799,2.8064,2.8099,2.8168,2.8193,2.817,2.8299,2.8334,2.8437,2.8465,2.8493,2.8512,2.8482,2.8607,2.8618,2.8629,2.8666,2.8681,2.8502,2.8502,2.8502,2.8501,0,2.7937,2.8002,2.8056,2.8122,2.8164,2.8235,2.8255,2.8297,2.8297,2.8316,2.8403,2.8444,2.8509,2.8534,2.8537,2.8638,2.8623,2.8604,2.8562,2.8647,2.8682,2.8697,2.8507,2.8506,2.8505,2.8504,0,0,2.807,2.8138,2.8158,2.8186,2.8243,2.8293,2.8363,2.8425,2.8459,2.8508,2.8565,2.8653,2.8634,2.867,2.8677,2.8723,2.881,2.8697,2.8698,2.8714,2.8921,2.8933,2.895,2.8803,2.8806,2.8809,2.8915,0,2.8179,2.8302,2.8312,2.8422,2.8481,2.8471,2.8531,2.8572,2.8591,2.8644,2.8666,2.8726,2.8698,2.872,2.8765,2.879,2.8851,2.8782,2.8856,2.8858,2.884,2.8969,2.8984,2.9082,2.8929,2.8932,2.8934,0,2.8324,2.8374,2.849,2.8535,2.856,2.8615,2.8671,2.8722,2.8767,2.8778,2.8818,2.8817,2.8887,2.8843,2.894,2.8893,2.8923,2.894,2.8944,2.8949,2.8899,2.8976,2.9115,2.9128,2.8956,2.8954,2.8953,0,2.8405,2.8502,2.8583,2.8608,2.8664,2.8702,2.8727,2.877,2.8805,2.8855,2.8878,2.8936,2.8967,2.9011,2.9025,2.8992,2.912,2.9078,2.9129,2.9129,2.9155,2.9153,2.9298,2.9179,2.9179,2.9178,2.9178,0,2.8525,2.8596,2.862,2.8669,2.8747,2.8758,2.8835,2.8858,2.8895,2.8948,2.8944,2.8993,2.901,2.9062,2.9074,2.915,2.9165,2.9175,2.9176,2.9174,2.9172,2.9192,2.9185,2.9182,2.9181,2.9181,2.918,0,2.8629,2.8648,2.8735,2.878,2.8793,2.8848,2.8886,2.8933,2.8951,2.9018,2.9035,2.9063,2.9124,2.9142,2.9217,2.9224,2.9313,2.931,2.9297,2.9296,2.9345,2.9339,2.9507,2.9528,2.9397,2.9399,2.94,0,2.8703,2.8757,2.8807,2.8841,2.8868,2.8924,2.896,2.8972,2.901,2.9064,2.9104,2.9164,2.9213,2.9311,2.9338,2.9394,2.939,2.9445,2.9399,2.9393,2.9388,2.9383,2.9387,2.9453,2.9455,2.9456,2.9457,0,2.8832,2.8838,2.889,2.8944,2.8987,2.9031,2.9073,2.9102,2.912,2.9162,2.9224,2.9261,2.9336,2.9395,2.9451,2.9477,2.9469,2.9471,2.9485,2.9482,2.9471,2.9475,2.9318,2.9467,2.9466,2.9465,2.9465,2.9464,2.8922,2.8967,2.9009,2.9066,2.9098,2.9137,2.9182,2.9205,2.9257,2.9317,2.9322,2.9388,2.943,2.9504,2.9533,2.9584,2.9568,2.9589,2.9594,2.9599,2.9601,2.9465,2.9595,2.9594,2.9594,2.9594,2.9594,0,2.9048,2.9073,2.9126,2.9183,2.9228,2.9217,2.9262,2.93,2.9358,2.9397,2.9444,2.9514,2.957,2.9601,2.9657,2.9692,2.969,2.9706,2.9703,2.9708,2.9614,2.9594,2.9707,2.9707,2.9707,2.9707,2.9707,2.9707,2.9118,2.9194,2.9205,2.9296,2.9321,2.9385,2.9411,2.9447,2.9478,2.9555,2.9602,2.9621,2.9656,2.9714,2.9765,2.9773,2.9792,2.981,2.9815,2.9727,2.9715,2.9704,2.9685,2.9815,2.9815,2.9905,2.9906,2.9906]},{"header":{"parameterUnit":"m.s-1","parameterCategory":1,"la1":30.2991,"la2":30.254,"lo1":-89.0895,"lo2":-89.0444,"dy":0.0017,"dx":0.0017,"nx":28,"ny":28,"refTime":"2025-07-19T21:00:00:Z","depth":0,"parameterNumber":3,"parameterNumberName":"V-component_of_WINDS"},"data":[0,0,0,0,0,0,0,0,0,0,0,0,0,0,0,0,0,0,0,0,0,0,0,0,0,0,0,0,0,0,0,0,0,0,0,0,0,0,0,0,0,0,0,0,0,0,0,0,0,0,0,0,0,0,0,0,0,0,1.423,1.423,0,1.4236,1.4236,1.4236,1.4198,1.4197,1.4196,1.4195,1.4202,1.4203,1.4204,0,0,0,0,0,0,0,0,0,0,0,0,0,1.4187,1.4188,1.423,1.423,1.423,1.4236,1.4236,1.4236,1.4198,1.4197,1.4196,1.4195,1.4202,1.4203,1.4204,0,0,0,0,0,0,0,0,0,0,0,0,0,1.4201,1.4189,1.423,1.4212,1.4211,1.4236,1.4236,1.4236,1.4199,1.4197,1.4195,1.4194,1.4201,1.4203,1.4204,1.4247,0,0,1.421,1.4211,0,0,0,0,0,0,0,0,1.42,1.4202,1.4215,1.4214,1.4212,1.4215,1.4223,1.424,1.4199,1.4203,1.4195,1.4193,1.4207,1.4209,1.4213,1.4247,1.4248,1.421,1.4211,1.4212,1.4212,0,0,0,0,0,0,0,1.4199,1.4202,1.4232,1.4215,1.4213,1.4204,1.4204,1.4226,1.4214,1.4203,1.42,1.4201,1.4206,1.4212,1.4213,1.4248,1.421,1.4212,1.4213,1.4213,1.4316,1.4317,0,0,0,0,0,0,1.4201,1.4202,1.4232,1.4232,1.4202,1.4206,1.4206,1.4215,1.4214,1.4212,1.4203,1.4199,1.4209,1.4211,1.4213,1.4262,1.4212,1.4213,1.4214,1.4314,1.4316,1.4318,0,0,0,0,0,0,1.42,1.4204,1.4232,1.4216,1.4219,1.4208,1.4219,1.4216,1.4221,1.4214,1.4211,1.421,1.4208,1.4211,1.4238,1.4262,1.4214,1.4216,1.4312,1.4315,1.4317,1.436,0,0,0,0,0,0,1.4199,1.4204,1.422,1.4217,1.422,1.4257,1.422,1.4218,1.4224,1.422,1.422,1.4219,1.4207,1.4236,1.424,1.4263,1.4217,1.431,1.4313,1.4316,1.4357,1.4364,1.437,0,0,0,0,0,1.4197,1.4233,1.4221,1.4225,1.424,1.4259,1.4261,1.4246,1.4226,1.4242,1.4237,1.4219,1.4258,1.4239,1.4244,1.4267,1.4308,1.4312,1.4316,1.4354,1.4363,1.437,0,0,0,0,0,0,1.424,1.4232,1.4219,1.4254,1.4257,1.4252,1.4272,1.4256,1.4266,1.4262,1.4244,1.4244,1.4275,1.4274,1.4253,1.4308,1.428,1.4285,1.4307,1.4316,1.4322,1.4322,1.4219,0,0,0,0,0,1.4253,1.4269,1.4261,1.4293,1.4295,1.4284,1.4291,1.428,1.4282,1.4284,1.4281,1.4284,1.4297,1.4306,1.4318,1.4356,1.4355,1.4375,1.4382,1.4387,1.4391,1.441,1.4419,1.433,1.433,1.433,0,0,1.4281,1.4279,1.429,1.4301,1.4303,1.4319,1.4285,1.4304,1.4316,1.4287,1.4312,1.431,1.4313,1.4346,1.436,1.4346,1.4415,1.4392,1.4396,1.4398,1.4415,1.4423,1.4431,1.4333,1.4332,1.4332,0,0,1.434,1.4341,1.4366,1.4368,1.4369,1.4361,1.4367,1.4364,1.4361,1.4386,1.4364,1.4378,1.4402,1.4404,1.4408,1.4466,1.4449,1.447,1.4506,1.4524,1.4531,1.4537,1.4557,1.4564,1.4475,1.4475,1.4475,0,1.4375,1.4399,1.4382,1.4402,1.4407,1.438,1.4406,1.4408,1.4414,1.4418,1.4402,1.4429,1.4429,1.4462,1.4476,1.448,1.4486,1.447,1.4531,1.4537,1.4543,1.4561,1.4569,1.4477,1.4477,1.4477,1.4477,0,1.4441,1.4457,1.4478,1.4483,1.449,1.4513,1.4499,1.4509,1.4497,1.449,1.4515,1.4514,1.4524,1.4531,1.452,1.4562,1.4553,1.4534,1.4506,1.4554,1.4571,1.4578,1.4481,1.448,1.4479,1.4479,0,0,1.4528,1.4522,1.4529,1.4531,1.4529,1.4542,1.4563,1.4572,1.458,1.4585,1.4602,1.4621,1.4604,1.4608,1.4597,1.4613,1.4658,1.4593,1.4592,1.4604,1.4703,1.4716,1.4725,1.4646,1.4648,1.4649,1.4702,0,1.4585,1.462,1.4605,1.4642,1.4656,1.463,1.4648,1.4649,1.4643,1.4654,1.4648,1.4662,1.4638,1.464,1.4655,1.4649,1.4677,1.4645,1.4662,1.4662,1.4661,1.4734,1.4749,1.4799,1.4709,1.471,1.4711,0,1.4657,1.4662,1.47,1.4695,1.47,1.4717,1.4723,1.4735,1.4735,1.4729,1.4734,1.4718,1.4738,1.471,1.4736,1.4715,1.4721,1.4718,1.472,1.4721,1.4689,1.4736,1.4815,1.4822,1.4721,1.4721,1.472,0,1.4715,1.4733,1.4757,1.4759,1.4754,1.4766,1.4764,1.4763,1.4769,1.4774,1.4778,1.4786,1.4791,1.4797,1.4784,1.4765,1.4812,1.4783,1.4808,1.4808,1.4819,1.4819,1.49,1.4824,1.4824,1.4824,1.4823,0,1.478,1.4804,1.4783,1.4798,1.4824,1.4806,1.4832,1.4827,1.4826,1.484,1.4818,1.4831,1.4813,1.4824,1.4814,1.4837,1.484,1.4835,1.4832,1.4837,1.4837,1.484,1.4836,1.4826,1.4825,1.4825,1.4824,0,1.485,1.4837,1.4862,1.4854,1.4852,1.4872,1.4865,1.4878,1.487,1.4888,1.4891,1.4878,1.489,1.4877,1.4889,1.4882,1.4913,1.4905,1.4913,1.491,1.4935,1.4933,1.5021,1.5031,1.4949,1.495,1.495,0,1.4892,1.491,1.4903,1.491,1.4909,1.4922,1.4927,1.4909,1.4916,1.4917,1.493,1.494,1.4947,1.4968,1.496,1.4968,1.496,1.499,1.4961,1.4965,1.4959,1.4958,1.4959,1.4996,1.4997,1.4997,1.4998,0,1.4968,1.496,1.4969,1.4974,1.4981,1.4985,1.4988,1.4995,1.4976,1.4985,1.4996,1.5002,1.5012,1.5023,1.5028,1.5027,1.5009,1.5007,1.5013,1.5018,1.5021,1.5019,1.4928,1.5005,1.5005,1.5004,1.5004,1.5003,1.5025,1.5038,1.5035,1.5045,1.5045,1.5047,1.5059,1.5051,1.506,1.5067,1.5056,1.5071,1.5069,1.5075,1.5075,1.5086,1.5073,1.5082,1.5084,1.5087,1.509,1.502,1.5087,1.5087,1.5087,1.5086,1.5086,0,1.5099,1.5095,1.5104,1.5107,1.5114,1.5096,1.5098,1.5105,1.5118,1.5118,1.5124,1.5137,1.5146,1.5138,1.5146,1.5156,1.5148,1.5158,1.5157,1.5157,1.5101,1.5095,1.5165,1.5165,1.5165,1.5165,1.5165,1.5165,1.5138,1.516,1.5151,1.5172,1.5168,1.5181,1.5183,1.5185,1.5185,1.52,1.5207,1.5201,1.5198,1.5205,1.5212,1.5209,1.5213,1.5226,1.5221,1.5169,1.5161,1.5154,1.5148,1.5227,1.5227,1.5275,1.5276,1.5276]}]]